STARLINK-1517 (45787 NORAD) Tracking and Keplerian Element Data

This shows tracking and keplerian element data for the satellite.

Feedback or suggestion? Click here.




ElementValue
Catalog45787
NameSTARLINK-1517
Epoch Orbit908
Epoch Day216.16667824
Epoch Year2020
RAAN47.4013
Inclination53.0002
Eccentricity0.0001445
Argument of Perigee42.7085
Mean Anonmoly141.6655
Mean Motion15.62744449
Decay Rate-0.00033214
L11 45787U 20038BK 20216.16667824 -.00033214 00000-0 -35848-3 0 9991
L22 45787 53.0002 47.4013 0001445 42.7085 141.6655 15.62744449 9083

Live tracking and technical data element details for STARLINK-1517 (NORAD 45787). STARLINK-1517 can be tracked NOW for your location showing map with azimuth and elevation plus other details from your city location.

Track the satellite on the map from your city or location and see movement details for azimuth, elevation, latitude, longitude, range, height, and movement on the map or in text.







IsCatalogInMostPopularTable: catalog: 45787, numindb: 15
Update: records affected: 1



GetName: 45787 STARLINK-1517

Hit Count: updated at: Mon, 03 Aug 2020 17:18:03 GMT